Roswell, NM

5:26 AM MDT on April 23, 2017 (GMT -0600)
Roswell Industrial

Weather History for KROW - December, 2013

Change the Weather History Date:

Saturday, December 7, 2013

  Actual Average Record
Temperature  
Mean Temperature 23 °F 42 °F  
Max Temperature 27 °F 56 °F 77 °F (1933)
Min Temperature 19 °F 27 °F 0 °F (1912)
Degree Days  
Heating Degree Days 42 23  
Month to date heating degree days 156 158  
Since 1 July heating degree days 821 804  
Cooling Degree Days 0 0  
Month to date cooling degree days 0 0  
Year to date cooling degree days 2174 1789  
Moisture  
Dew Point 19 °F    
Average Humidity 90    
Maximum Humidity 96    
Minimum Humidity 84    
Precipitation  
Precipitation 0.00 in 0.02 in 0.37 in (1951)
Month to date precipitation 0.18 0.14  
Year to date precipitation 9.18 12.41  
Sea Level Pressure  
Sea Level Pressure 30.22 in    
Wind  
Wind Speed 13 mph (SSE)    
Max Wind Speed 18 mph    
Max Gust Speed 24 mph    
Visibility 3 miles    
Events      
T = Trace of Precipitation, MM = Missing Value Source: NWS Daily Summary

Daily Weather History Graph

Daily Weather History Graph

Search for Another Location

Airport or City:

Trip Planner

Search our weather history database for the weather conditions in past years. The results will help you decide how hot, cold, wet, or windy it might be!

Date:

Astronomy

Dec. 07, 2013 Rise Set
Actual Time 6:48 AM MST 4:50 PM MST
Civil Twilight 6:21 AM MST 5:17 PM MST
Nautical Twilight 5:50 AM MST 5:48 PM MST
Astronomical Twilight 5:20 AM MST 6:18 PM MST
Moon 10:45 AM MST (12/7) 10:23 PM MST (12/7)
Length of Visible Light 10h 56m
Length of Day
10h 01m
Waxing Crescent, 30% of the Moon is Illuminated
Dec 7
Waxing Crescent
Dec 9
First Quarter
Dec 17
Full
Dec 25
Last Quarter
Jan 1
New

Hourly Weather History & Observations

Time (MST) Temp. Windchill Dew Point Humidity Pressure Visibility Wind Dir Wind Speed Gust Speed Precip Events Conditions
12:51 AM 27.0 °F 18.7 °F 24.1 °F 89% 30.33 in 2.0 mi SE 8.1 mph - N/A   Overcast
1:51 AM 27.0 °F 17.3 °F 24.1 °F 89% 30.33 in 2.0 mi SSE 10.4 mph - N/A   Overcast
2:48 AM 26.6 °F 16.2 °F 24.8 °F 93% 30.28 in 2.0 mi SE 11.5 mph - N/A   Overcast
2:51 AM 26.1 °F 15.0 °F 24.1 °F 92% 30.32 in 2.0 mi SE 12.7 mph - N/A   Overcast
3:51 AM 25.0 °F 12.2 °F 23.0 °F 92% 30.33 in 2.0 mi SE 16.1 mph - N/A   Overcast
4:51 AM 23.0 °F 8.7 °F 21.0 °F 92% 30.33 in 2.0 mi SE 18.4 mph 24.2 mph N/A   Overcast
5:05 AM 21.2 °F 8.3 °F 19.4 °F 93% 30.28 in 2.0 mi SE 13.8 mph - N/A   Overcast
5:51 AM 21.0 °F 8.6 °F 19.0 °F 92% 30.34 in 2.0 mi SE 12.7 mph - N/A   Overcast
5:59 AM 21.2 °F 7.3 °F 19.4 °F 93% 30.29 in - SE 16.1 mph - N/A   Overcast
6:51 AM 19.9 °F 6.2 °F 18.0 °F 92% 30.35 in 3.0 mi SE 15.0 mph - N/A   Overcast
7:51 AM 19.9 °F 7.9 °F 18.0 °F 92% 30.35 in 3.0 mi SSE 11.5 mph - N/A   Overcast
8:17 AM 19.4 °F 5.5 °F 17.6 °F 93% 30.30 in 5.0 mi SSE 15.0 mph - N/A   Overcast
8:51 AM 19.9 °F 7.9 °F 17.1 °F 89% 30.36 in 8.0 mi SSE 11.5 mph - N/A   Overcast
9:51 AM 19.9 °F 5.7 °F 16.0 °F 85% 30.35 in 8.0 mi SSE 16.1 mph - N/A   Overcast
10:51 AM 19.9 °F 5.7 °F 17.1 °F 89% 30.32 in 3.0 mi SSE 16.1 mph - N/A   Overcast
11:40 AM 19.4 °F 4.5 °F 17.6 °F 93% 30.23 in 3.0 mi SSE 17.3 mph - N/A   Overcast
11:51 AM 19.9 °F 6.2 °F 17.1 °F 89% 30.27 in 3.0 mi South 15.0 mph 23.0 mph N/A   Overcast
12:51 PM 19.9 °F 6.2 °F 17.1 °F 89% 30.21 in 5.0 mi SSE 15.0 mph - N/A   Overcast
1:51 PM 19.9 °F 6.2 °F 17.1 °F 89% 30.17 in 5.0 mi SSE 15.0 mph 21.9 mph N/A   Overcast
2:51 PM 19.9 °F 8.6 °F 17.1 °F 89% 30.17 in 5.0 mi SSE 10.4 mph - N/A   Overcast
3:51 PM 19.9 °F 7.9 °F 18.0 °F 92% 30.14 in 3.0 mi SSE 11.5 mph - N/A   Overcast
4:51 PM 19.9 °F 8.6 °F 18.0 °F 92% 30.15 in 3.0 mi SSE 10.4 mph - N/A   Overcast
5:51 PM 19.9 °F 7.3 °F 18.0 °F 92% 30.13 in 3.0 mi SSE 12.7 mph - N/A   Overcast
6:51 PM 21.0 °F 8.6 °F 19.0 °F 92% 30.12 in 3.0 mi SSE 12.7 mph - N/A   Overcast
7:48 PM 21.2 °F 9.5 °F 19.4 °F 93% 30.05 in 2.0 mi SSE 11.5 mph - N/A   Overcast
7:51 PM 21.0 °F 8.6 °F 19.0 °F 92% 30.12 in 2.0 mi South 12.7 mph - N/A   Overcast
7:58 PM 21.2 °F 8.3 °F 19.4 °F 93% 30.05 in 2.0 mi SSE 13.8 mph - N/A   Overcast
8:51 PM 21.0 °F 8.6 °F 19.9 °F 96% 30.11 in 2.0 mi SSE 12.7 mph - N/A   Overcast
9:51 PM 21.0 °F 7.6 °F 19.9 °F 96% 30.08 in 2.0 mi SSE 15.0 mph - N/A   Overcast
10:51 PM 21.0 °F 9.9 °F 19.9 °F 96% 30.06 in 2.0 mi South 10.4 mph - N/A   Overcast
11:51 PM 21.9 °F 12.5 °F 19.9 °F 92% 30.04 in 2.0 mi SSE 8.1 mph - N/A   Overcast